Terminal Aerodrome Forecast
Issued by NWS Cleveland, OH

Home | Current Version | Previous Version | Text Only | Print | Product List | Glossary On
Versions: 1 2 3 4 5 6 7 8 9 10 11 12 13 14 15 16 17 18 19 20 21
000
FTUS41 KCLE 271700
TAFMFD
TAF
KMFD 271729Z 2718/2818 36006KT P6SM SCT030
      TEMPO 2718/2719 BKN030
     FM271900 01008KT P6SM SCT035
     FM280000 02004KT P6SM SCT250
     FM280700 02004KT 2SM BR SCT250
     FM281400 02004KT P6SM SCT250=

USA.gov is the U.S. government's official web portal to all federal, state and local government web resources and services.